Location: Six Mile Lake
(44.9000°N, 79.7170°W)
Time: 18:55:10
(UTC-04:00)

ESTCUBE 1 - Pass Details

Date: 04 July 2022
Orbit: 646 x 657 km, 97.9° (Epoch: 07 August)

Event Time Altitude Azimuth Distance (km) Brightness Sun altitude
Exits shadow 22:12:38 - 109° (ESE) 2,087 ? -9.6°
Reaches altitude 10° 22:12:47 10° 108° (ESE) 2,046 ? -9.6°
Maximum altitude 22:15:54 19° 63° (ENE) 1,538 ? -10.0°
Drops below altitude 10° 22:19:03 10° 19° (NNE) 2,060 ? -10.3°
Sets 22:21:47 0° 2° (N) 2,978 ? -10.7°
